TimeCST,TemperatureF,Dew PointF,Humidity,Sea Level PressureIn,VisibilityMPH,Wind Direction,Wind SpeedMPH,Gust SpeedMPH,PrecipitationIn,Events,Conditions,WindDirDegrees,DateUTC
12:52 AM,39.0,19.9,46,30.35,10.0,South,3.5,-,N/A,,Clear,170,2012-11-14 06:52:00
1:52 AM,35.1,21.9,59,30.35,10.0,South,5.8,-,N/A,,Clear,170,2012-11-14 07:52:00
2:52 AM,35.1,21.9,59,30.34,10.0,SSE,8.1,-,N/A,,Clear,160,2012-11-14 08:52:00
3:52 AM,36.0,23.0,59,30.34,10.0,SSE,8.1,-,N/A,,Clear,160,2012-11-14 09:52:00
4:52 AM,35.1,21.9,59,30.34,10.0,SSE,8.1,-,N/A,,Clear,160,2012-11-14 10:52:00
5:52 AM,36.0,23.0,59,30.35,10.0,SSE,6.9,-,N/A,,Clear,160,2012-11-14 11:52:00
6:52 AM,35.1,23.0,61,30.37,10.0,Calm,Calm,-,N/A,,Clear,0,2012-11-14 12:52:00
7:52 AM,37.0,23.0,57,30.39,10.0,SSW,6.9,-,N/A,,Clear,200,2012-11-14 13:52:00
8:52 AM,44.1,25.0,47,30.40,10.0,South,3.5,-,N/A,,Clear,190,2012-11-14 14:52:00
9:52 AM,51.1,23.0,33,30.40,10.0,SSW,9.2,-,N/A,,Clear,210,2012-11-14 15:52:00
10:52 AM,54.0,23.0,30,30.39,10.0,SSW,6.9,-,N/A,,Clear,210,2012-11-14 16:52:00
11:52 AM,57.0,19.0,23,30.36,10.0,SSW,5.8,-,N/A,,Clear,200,2012-11-14 17:52:00
12:52 PM,59.0,19.0,21,30.32,10.0,Variable,5.8,-,N/A,,Clear,0,2012-11-14 18:52:00
1:52 PM,61.0,19.9,21,30.29,10.0,SSW,4.6,-,N/A,,Clear,210,2012-11-14 19:52:00
2:52 PM,63.0,21.9,21,30.27,10.0,SSE,8.1,-,N/A,,Clear,150,2012-11-14 20:52:00
3:52 PM,62.1,23.0,22,30.25,10.0,South,6.9,-,N/A,,Clear,180,2012-11-14 21:52:00
4:52 PM,61.0,25.0,25,30.25,10.0,South,3.5,-,N/A,,Clear,170,2012-11-14 22:52:00
5:52 PM,55.9,25.0,30,30.25,10.0,South,6.9,-,N/A,,Clear,170,2012-11-14 23:52:00
6:52 PM,48.0,27.0,44,30.27,10.0,South,5.8,-,N/A,,Clear,180,2012-11-15 00:52:00
7:52 PM,46.0,28.0,50,30.27,10.0,SSE,6.9,-,N/A,,Clear,150,2012-11-15 01:52:00
8:52 PM,44.1,28.0,53,30.25,10.0,SSE,6.9,-,N/A,,Clear,150,2012-11-15 02:52:00
9:52 PM,44.1,28.0,53,30.24,10.0,SE,5.8,-,N/A,,Clear,140,2012-11-15 03:52:00
10:52 PM,43.0,28.0,56,30.23,10.0,SSE,8.1,-,N/A,,Clear,150,2012-11-15 04:52:00
11:52 PM,46.0,25.0,44,30.22,10.0,SSE,9.2,-,N/A,,Clear,160,2012-11-15 05:52:00